[Iaude] MPEC D101: 2024 DO1 [a=1.47,e=0.46,i=7.4,H=22.6]

mpec at cfa.harvard.edu mpec at cfa.harvard.edu
Wed Feb 21 16:53:45 EST 2024


M.P.E.C. 2024-D101                            Issued 2024 February 21, 21:52 UT

     The Minor Planet Electronic Circulars contain information on unusual
         minor planets, routine data on comets and natural satellites,
         and occasional editorial announcements.  They are published
    on behalf of Division F of the International Astronomical Union by the
          Minor Planet Center, Smithsonian Astrophysical Observatory,
                          Cambridge, MA 02138, U.S.A.
			  
             Prepared using the Tamkin Foundation Computer Network

                              MPC at CFA.HARVARD.EDU
            URL https://www.minorplanetcenter.net/    ISSN 1523-6714

                                    2024 DO1                                    


Observations:
     K24D01O  C2024 01 19.61823411 40 14.528+05 28 41.74         23.03GVED101F52
     K24D01O  C2024 01 19.62941511 40 16.029+05 28 42.22         23.30GVED101F52
     K24D01O  C2024 01 19.64061011 40 17.476+05 28 42.71         22.86GVED101F52
     K24D01O  C2024 01 19.65171111 40 18.913+05 28 42.83         23.20GVED101F52
     K24D01O  C2024 02 09.57200512 43 19.428+07 26 41.41         22.03GVED101F52
     K24D01O  C2024 02 09.58389212 43 22.286+07 26 50.56         21.82GVED101F52
     K24D01O*1C2024 02 19.49286013 36 36.954+10 19 40.44         20.71GVED101G96
     K24D01O 1C2024 02 19.49800813 36 39.042+10 19 47.28         20.37GVED101G96
     K24D01O 1C2024 02 19.50314313 36 41.080+10 19 54.52         20.64GVED101G96
     K24D01O 1C2024 02 19.50828713 36 43.099+10 20 01.28         20.87GVED101G96
     K24D01O 1C2024 02 19.54725313 36 58.720+10 20 52.80         21.00GVED101G96
     K24D01O 1C2024 02 19.54767013 36 59.010+10 20 54.00               VED101G96
     K24D01O 1C2024 02 19.54808613 36 59.140+10 20 55.50               VED101G96
     K24D01O 1C2024 02 19.61739413 37 28.600+10 22 38.75         21.56GVED101T12
     K24D01O 1C2024 02 19.61964413 37 29.513+10 22 41.92         21.70GVED101T12
     K24D01O 1C2024 02 19.62230413 37 30.603+10 22 45.46         21.81GVED101T12
     K24D01O 1C2024 02 20.44412813 43 22.220+10 41 46.57         21.27GVED101G96
     K24D01O 1C2024 02 20.44489113 43 22.566+10 41 47.58         20.81GVED101G96
     K24D01O 1C2024 02 20.44565413 43 22.937+10 41 48.98         20.85GVED101G96
     K24D01O 1C2024 02 20.44641613 43 23.290+10 41 50.50         20.78GVED101G96
     K24D01O 1C2024 02 20.50266713 43 48.881+10 43 17.69         21.26GVED101T12
     K24D01O 1C2024 02 20.50496713 43 49.849+10 43 20.99         21.38GVED101T12
     K24D01O 1C2024 02 20.50865713 43 51.417+10 43 26.26         21.38GVED101T12
     K24D01O 7C2024 02 21.14816513 48 36.149+10 58 42.52               VED101Z84
     K24D01O 7C2024 02 21.15289613 48 38.241+10 58 49.06               VED101Z84
     K24D01O 7C2024 02 21.15810913 48 40.522+10 58 57.14         21.1 GVED101Z84
     K24D01O KB2024 02 21.16051 13 48 42.22 +10 59 06.3                qED101Y66
     K24D01O KB2024 02 21.16259 13 48 43.16 +10 59 09.7                qED101Y66
     K24D01O KB2024 02 21.16324 13 48 43.42 +10 59 10.7                qED101Y66

Observer details:
F52 Pan-STARRS 2, Haleakala.  Observers J. Herman, T. Lowe, P. Minguez, A.
    Schultz, I. Smith.  Measurers K. Chambers, T. de Boer, J. Fairlamb, H.
    Gao, M. Huber, C.-C. Lin, E. Magnier, Y. Ramanjooloo, R. Wainscoat, R.
    Weryk.  1.8-m Ritchey-Chretien + CCD.
G96 Mt. Lemmon Survey.  Observers T. Beuden, G. J. Leonard.  Measurers T.
    Beuden, V. F. Carvajal, D. Fay, J. B. Fazekas, D. C. Fuls, A. R. Gibbs, A.
    D. Grauer, H. Groeller, J. K. Hogan, R. A. Kowalski, S. M. Larson, G. J.
    Leonard, D. Rankin, R. L. Seaman, F. C. Shelly, K. W. Wierzchos.  1.5-m
    reflector + 10K CCD.
T12 University of Hawaii 88-inch telescope, Maunakea.  Observer Y.
    Ramanjooloo.  Measurers R. Weryk, Y. Ramanjooloo, J. Fairlamb, R.
    Wainscoat.  2.24-m f/10.1 reflector + CCD.
Y66 Two-Meter Twin Telescope, TTT2, Teide.  Observer M. Serra.  Measurer M.
    Hierro.  0.80-m f/4.38 reflector + CMO.
Z84 Calar Alto-Schmidt.  Observers F. Ocana, R. Kresken, M. Micheli, L.
    Conversi.  Measurers F. Ocana, M. Micheli.  0.8-m f/3 Schmidt + CCD.

Orbital elements:
2024 DO1                                                 Earth MOID = 0.0240 AU
Epoch 2024 Mar. 31.0 TT = JDT 2460400.5                 Bell                    
M 344.09630              (2000.0)            P               Q                  
n   0.55426468     Peri.  119.12202     -0.38267370     +0.91833753             
a   1.4677697      Node   128.02533     -0.88597313     -0.33374913             
e   0.4604361      Incl.    7.37228     -0.26193978     -0.21276209             
P   1.78           H   22.67          G   0.15           U   6                  
Residuals in seconds of arc
240119 F52  0.2-  0.1-    240219 G96  1.0-  1.2-    240220 T12  0.0   0.1+
240119 F52  0.4+  0.0     240219 G96  0.8+  0.6-    240220 T12  0.1-  0.1+
240119 F52  0.1+  0.2+    240219 G96  0.2+  0.4+    240220 T12  0.1-  0.0
240119 F52  0.2-  0.1-    240219 T12  0.3-  0.1-    240221 Z84  0.1-  0.3+
240209 F52  0.0   0.1-    240219 T12  0.1-  0.0     240221 Z84  0.0   0.2-
240209 F52  0.1-  0.1+    240219 T12  0.2+  0.1-    240221 Z84  0.3-  0.2+
240219 G96  0.2+  0.0     240220 G96  0.2-  0.1-    240221 Y66  0.3+  0.2+
240219 G96  0.6+  0.2-    240220 G96  0.1+  0.1-    240221 Y66  0.6+  0.6+
240219 G96  0.3+  0.1+    240220 G96  0.8+  0.2+    240221 Y66  0.2+  0.6+
240219 G96  0.4-  0.1-    240220 G96 (1.3+  0.6+)

Ephemeris:
2024 DO1                 a,e,i = 1.47, 0.46, 7                   q = 0.7920
Date    TT    R. A. (2000) Decl.     Delta      r    Elong.  Phase     V
2024 01 22    11 45 48.7 +05 31 08   0.5113  1.3521   126.5    35.8    23.3
...
2024 02 06    12 29 22.8 +06 47 16   0.3482  1.2449   131.6    36.3    22.3
...
2024 02 14    13 03 52.7 +08 31 33   0.2733  1.1863   131.5    38.6    21.8
...
2024 02 20    13 40 10.0 +10 31 34   0.2246  1.1421   128.5    42.6    21.4
2024 02 21    13 47 28.4 +10 55 22   0.2173  1.1347   127.7    43.6    21.3
2024 02 22    13 55 12.9 +11 20 13   0.2102  1.1274   126.7    44.7    21.3
...
2024 02 28    14 52 25.4 +14 04 52   0.1741  1.0834   118.2    53.7    21.0
...
2024 03 07    16 40 02.7 +17 03 05   0.1491  1.0259    98.8    72.9    21.1
...
2024 03 22    19 56 47.1 +13 33 28   0.1897  0.9255    62.9   106.6    22.9

M. P. C. Staff               (C) Copyright 2024 MPC           M.P.E.C. 2024-D101





More information about the Iaude mailing list